OPS 4682 DEB, 38376

Orbit data source: Space-Track

OPS 4682 DEB, 38376 is space debris in LEO originally from a launch on Sat, 03 Apr 1965 UTC launched from the Air Force Western Test Range (AFWTR). Debris objects in space refer to the collection of defunct objects orbiting the Earth. Examples of debris include non-operational satellites, rocket bodies, and fragments generated from explosions, collisions, or faulty payload assembly.

Loading next visibility...
Identifier
38376, 1965-027CD
Orbit
LEO
Country
Flag of USUS
Related business
Manufacturer
Unknown
Mission
Spacecraft
Bus & Motor
Unknown
Mass
Unknown
Launch date (UTC)
1965-04-03 (61 years ago)
Launch vehicle
Unknown
Launch site
Air Force Western Test Range (AFWTR)
Object type
Payload
Rocket body
Debris
Shape & HBR
Unknown shape, 0.1 m
Radar Cross Section
Medium (>0.1 m² and <1 m²)

Expand to show TLE details & history
Last TLE update: 1 day ago

TLE from 1 day ago
0 OPS 4682 DEB
1 38376U 65027CD  26207.89879896  .00000600  00000-0  20847-2 0  9997
2 38376  90.2432  11.6457 0030286  42.6745 317.6720 12.95868701666933
Epoch: 2026-07-26T21:34Z
TLE epoch observation values (Epoch: 2026-07-26T21:34:16.230Z)
Latitude
0.00005°
Longitude
103.48796°
Altitude
1,264.079 km
Speed
7.231 km/s
True Right ascension
00h 46m 34s
True Declination
0° 00' 00"
Sunlit
Object was in daylight at epoch
Visualization orbit readout
Latitude
Unknown
Longitude
Unknown
Altitude
Unknown
Speed
Unknown
Apparent Right ascension
Unknown
Apparent Declination
Unknown
Sunlit
N/A
Visualization observer readout
Local Sidereal Time
14:14:45
Azimuth
Unknown
Elevation
Unknown
Doppler factor
Unknown
Orbital elements
Apogee altitude
1,298.629 km
Perigee altitude
1,252.27 km
Semi-major axis
7,653.586 km
Eccentricity
0.00303
Inclination
90.2432°
RAAN
11.6457°
Arg. of periapsis
42.6745°
True anomaly
317.43765°
Mean anomaly
317.672°
Eccentric anomaly
317.55489°
Mean motion
3.2415 °/min
Orbital period
111.06 mins
BSTAR
0.0020847
Loading maneuver chart data...
Computing Atmospheric mass density...
Loading historical data...
Loading historical data...
Loading historical data...
Loading historical data...
Loading historical data...
Loading historical data...
Loading historical data...

Documentation

Showing up to 5 results
|